Location: Honea-Egypt Observatory
(30.2769°N, 95.5936°W)
Time: 00:17:51
(UTC-06:00)

N. Korean satellite - Visible Passes

Search period start: 04 December 2020 00:00
Search period end: 14 December 2020 00:00
Orbit: 453 x 503 km, 97.2° (Epoch: 03 December)

Date Brightness Start Highest point End Pass type
(mag) Time Alt. Az. Time Alt. Az. Time Alt. Az.
04 Dec 10.1 04:46:33 10° ENE 04:47:43 11° E 04:48:53 10° ESE visible
04 Dec 7.4 06:17:49 10° NNW 06:21:02 30° WNW 06:24:17 10° SW visible
05 Dec 6.5 05:51:08 10° N 05:54:48 76° W 05:58:28 10° SSW visible
05 Dec 9.6 17:54:35 10° SW 17:57:09 20° W 17:59:45 10° NW visible
06 Dec 7.9 05:24:58 10° NNE 05:28:28 41° E 05:31:57 10° S visible
07 Dec 9.5 04:59:29 10° NE 05:02:02 18° E 05:04:36 10° SE visible
07 Dec 8.0 06:32:31 10° NNW 06:35:12 19° WNW 06:37:54 10° WSW visible
08 Dec 6.9 06:05:28 10° N 06:08:59 45° WNW 06:12:31 10° SSW visible
08 Dec 9.9 18:09:53 10° WSW 18:11:24 12° W 18:12:57 10° WNW visible
09 Dec 6.9 05:39:00 10° NNE 05:42:40 70° E 05:46:21 10° S visible
09 Dec 8.8 17:41:52 10° SSW 17:44:55 30° W 17:48:00 10° NW visible
10 Dec 8.7 05:13:03 10° NE 05:16:16 28° E 05:19:28 10° SSE visible
11 Dec 10.0 04:48:12 10° ENE 04:49:46 12° E 04:51:20 10° ESE visible
11 Dec 7.5 06:19:53 10° NNW 06:23:04 28° WNW 06:26:16 10° SW visible
12 Dec 6.5 05:53:06 10° N 05:56:47 69° WNW 06:00:26 10° SSW visible
12 Dec 9.6 17:56:33 10° SW 17:59:03 19° W 18:01:35 10° NW visible
13 Dec 7.7 05:26:50 10° NNE 05:30:24 45° E 05:33:56 10° S visible
